TimeHST,TemperatureF,Dew PointF,Humidity,Sea Level PressureIn,VisibilityMPH,Wind Direction,Wind SpeedMPH,Gust SpeedMPH,PrecipitationIn,Events,Conditions,WindDirDegrees,DateUTC
12:16 AM,37.4,-11.2,12,30.14,10.0,ESE,12.7,-,N/A,,Overcast,120,2012-11-29 10:16:00
12:36 AM,37.4,-11.2,12,30.14,10.0,East,11.5,-,N/A,,Overcast,100,2012-11-29 10:36:00
12:56 AM,37.4,-11.2,12,30.14,10.0,East,12.7,-,N/A,,Overcast,90,2012-11-29 10:56:00
1:16 AM,37.4,-11.2,12,30.14,10.0,East,10.4,-,N/A,,Overcast,90,2012-11-29 11:16:00
1:36 AM,37.4,-11.2,12,30.14,10.0,East,9.2,-,N/A,,Overcast,100,2012-11-29 11:36:00
1:56 AM,37.4,-11.2,12,30.14,10.0,East,10.4,-,N/A,,Overcast,100,2012-11-29 11:56:00
2:16 AM,37.4,-11.2,12,30.13,10.0,East,13.8,-,N/A,,Overcast,80,2012-11-29 12:16:00
2:36 AM,37.4,-11.2,12,30.12,10.0,East,13.8,-,N/A,,Overcast,80,2012-11-29 12:36:00
2:56 AM,37.4,-11.2,12,30.12,10.0,East,12.7,-,N/A,,Overcast,90,2012-11-29 12:56:00
3:16 AM,37.4,-11.2,12,30.12,10.0,East,10.4,-,N/A,,Overcast,90,2012-11-29 13:16:00
3:36 AM,39.2,-11.2,11,30.12,10.0,East,10.4,-,N/A,,Overcast,90,2012-11-29 13:36:00
3:56 AM,39.2,-11.2,11,30.12,10.0,East,12.7,-,N/A,,Overcast,90,2012-11-29 13:56:00
4:16 AM,39.2,-11.2,11,30.11,10.0,East,12.7,-,N/A,,Overcast,100,2012-11-29 14:16:00
4:36 AM,39.2,-11.2,11,30.11,10.0,East,15.0,-,N/A,,Overcast,90,2012-11-29 14:36:00
4:56 AM,39.2,-11.2,11,30.10,10.0,East,15.0,21.9,N/A,,Overcast,100,2012-11-29 14:56:00
5:16 AM,39.2,-11.2,11,30.10,10.0,East,13.8,18.4,N/A,,Overcast,90,2012-11-29 15:16:00
5:36 AM,39.2,-11.2,11,30.10,10.0,East,18.4,-,N/A,,Overcast,100,2012-11-29 15:36:00
5:56 AM,39.2,-11.2,11,30.10,10.0,East,16.1,-,N/A,,Overcast,100,2012-11-29 15:56:00
6:16 AM,39.2,-11.2,11,30.10,10.0,East,13.8,21.9,N/A,,Overcast,90,2012-11-29 16:16:00
6:36 AM,39.2,-11.2,11,30.10,10.0,East,17.3,20.7,N/A,,Overcast,90,2012-11-29 16:36:00
6:56 AM,39.2,-11.2,11,30.09,10.0,East,17.3,23.0,N/A,,Overcast,90,2012-11-29 16:56:00
7:16 AM,39.2,-11.2,11,30.10,10.0,East,17.3,21.9,N/A,,Overcast,90,2012-11-29 17:16:00
7:36 AM,37.4,-11.2,12,30.10,10.0,East,16.1,25.3,N/A,,Overcast,90,2012-11-29 17:36:00
7:56 AM,37.4,-11.2,12,30.10,10.0,East,17.3,26.5,N/A,,Overcast,80,2012-11-29 17:56:00
8:16 AM,37.4,-11.2,12,30.10,10.0,East,20.7,24.2,N/A,,Overcast,90,2012-11-29 18:16:00
8:36 AM,37.4,-11.2,12,30.10,10.0,ENE,16.1,24.2,N/A,,Overcast,70,2012-11-29 18:36:00
8:56 AM,37.4,-11.2,12,30.09,10.0,East,18.4,23.0,N/A,,Overcast,80,2012-11-29 18:56:00
9:16 AM,37.4,-11.2,12,30.10,10.0,East,19.6,26.5,N/A,,Overcast,90,2012-11-29 19:16:00
9:36 AM,37.4,-11.2,12,30.10,10.0,East,16.1,26.5,N/A,,Overcast,90,2012-11-29 19:36:00
9:56 AM,37.4,-11.2,12,30.09,10.0,East,20.7,-,N/A,,Overcast,100,2012-11-29 19:56:00
10:16 AM,37.4,-11.2,12,30.09,10.0,East,20.7,25.3,N/A,,Mostly Cloudy,90,2012-11-29 20:16:00
10:36 AM,37.4,-11.2,12,30.10,10.0,East,20.7,25.3,N/A,,Overcast,100,2012-11-29 20:36:00
10:56 AM,37.4,-11.2,12,30.10,10.0,East,18.4,25.3,N/A,,Overcast,90,2012-11-29 20:56:00
11:16 AM,37.4,-11.2,12,30.11,10.0,East,17.3,29.9,N/A,,Overcast,90,2012-11-29 21:16:00
11:36 AM,37.4,-11.2,12,30.11,10.0,East,16.1,20.7,N/A,,Overcast,100,2012-11-29 21:36:00
11:56 AM,37.4,-11.2,12,30.11,10.0,East,18.4,21.9,N/A,,Overcast,80,2012-11-29 21:56:00
12:16 PM,37.4,-11.2,12,30.10,10.0,East,19.6,-,N/A,,Overcast,90,2012-11-29 22:16:00
12:36 PM,37.4,-11.2,12,30.10,10.0,East,15.0,24.2,N/A,,Overcast,80,2012-11-29 22:36:00
12:56 PM,37.4,-11.2,12,30.09,10.0,East,18.4,21.9,N/A,,Overcast,90,2012-11-29 22:56:00
1:16 PM,37.4,-11.2,12,30.09,10.0,East,18.4,24.2,N/A,,Overcast,90,2012-11-29 23:16:00
1:36 PM,37.4,-11.2,12,30.09,8.0,East,19.6,25.3,N/A,,Overcast,90,2012-11-29 23:36:00
1:56 PM,37.4,-11.2,12,30.08,10.0,East,17.3,-,N/A,,Mostly Cloudy,90,2012-11-29 23:56:00
2:16 PM,37.4,-11.2,12,30.08,10.0,ESE,16.1,-,N/A,,Partly Cloudy,110,2012-11-30 00:16:00
2:36 PM,37.4,-11.2,12,30.08,10.0,East,17.3,-,N/A,,Partly Cloudy,90,2012-11-30 00:36:00
2:56 PM,39.2,-11.2,11,30.08,10.0,East,18.4,21.9,N/A,,Scattered Clouds,90,2012-11-30 00:56:00
3:16 PM,39.2,-11.2,11,30.08,10.0,East,19.6,-,N/A,,Mostly Cloudy,90,2012-11-30 01:16:00
3:36 PM,37.4,-11.2,12,30.08,10.0,East,16.1,-,N/A,,Overcast,90,2012-11-30 01:36:00
3:56 PM,37.4,-11.2,12,30.08,10.0,East,15.0,19.6,N/A,,Scattered Clouds,100,2012-11-30 01:56:00
4:16 PM,37.4,-11.2,12,30.08,10.0,East,15.0,18.4,N/A,,Scattered Clouds,90,2012-11-30 02:16:00
4:36 PM,37.4,-11.2,12,30.08,10.0,East,17.3,-,N/A,,Partly Cloudy,90,2012-11-30 02:36:00
4:56 PM,37.4,-11.2,12,30.09,10.0,East,13.8,18.4,N/A,,Scattered Clouds,90,2012-11-30 02:56:00
5:16 PM,37.4,-11.2,12,30.09,10.0,East,16.1,-,N/A,,Clear,100,2012-11-30 03:16:00
5:36 PM,37.4,-11.2,12,30.08,10.0,East,15.0,21.9,N/A,,Clear,100,2012-11-30 03:36:00
5:56 PM,37.4,-13.0,11,30.08,10.0,East,9.2,21.9,N/A,,Partly Cloudy,80,2012-11-30 03:56:00
6:16 PM,35.6,-13.0,12,30.08,10.0,East,16.1,26.5,N/A,,Clear,80,2012-11-30 04:16:00
6:36 PM,37.4,-13.0,11,30.09,10.0,East,10.4,19.6,N/A,,Scattered Clouds,80,2012-11-30 04:36:00
6:56 PM,35.6,-13.0,12,30.08,10.0,East,13.8,19.6,N/A,,Partly Cloudy,100,2012-11-30 04:56:00
7:16 PM,35.6,-13.0,12,30.09,10.0,ENE,5.8,-,N/A,,Clear,60,2012-11-30 05:16:00
7:36 PM,35.6,-9999,N/A,30.09,10.0,East,13.8,18.4,N/A,,Partly Cloudy,100,2012-11-30 05:36:00
7:56 PM,35.6,-13.0,12,30.08,10.0,East,16.1,24.2,N/A,,Clear,90,2012-11-30 05:56:00
8:16 PM,35.6,-13.0,12,30.09,10.0,East,9.2,20.7,N/A,,Clear,80,2012-11-30 06:16:00
8:36 PM,33.8,-14.8,12,30.08,10.0,North,5.8,-,N/A,,Clear,360,2012-11-30 06:36:00
8:56 PM,30.2,-16.6,13,30.08,10.0,Calm,Calm,-,N/A,,Clear,0,2012-11-30 06:56:00
9:16 PM,28.4,-18.4,12,30.08,10.0,Calm,Calm,-,N/A,,Clear,0,2012-11-30 07:16:00
9:36 PM,30.2,-18.4,11,30.08,10.0,NNW,3.5,-,N/A,,Clear,340,2012-11-30 07:36:00
9:56 PM,28.4,-16.6,13,30.09,10.0,Calm,Calm,-,N/A,,Clear,0,2012-11-30 07:56:00
10:16 PM,28.4,-18.4,12,30.09,10.0,Calm,Calm,-,N/A,,Clear,0,2012-11-30 08:16:00
10:36 PM,28.4,-18.4,12,30.09,10.0,North,3.5,-,N/A,,Clear,360,2012-11-30 08:36:00
10:56 PM,28.4,-18.4,12,30.10,10.0,South,3.5,-,N/A,,Clear,180,2012-11-30 08:56:00
11:16 PM,30.2,-16.6,13,30.09,10.0,ESE,9.2,-,N/A,,Clear,120,2012-11-30 09:16:00
11:36 PM,33.8,-14.8,12,30.10,10.0,SE,10.4,-,N/A,,Clear,130,2012-11-30 09:36:00
11:56 PM,35.6,-13.0,12,30.09,10.0,ESE,11.5,19.6,N/A,,Clear,120,2012-11-30 09:56:00